OneWeb SL0241

operational
NORAD ID: 48773 Int'l Des: 2021-045 Owner: ONEWEBN Country: UK Constellation: oneweb
LEOCIRCULARPOLARONEWEB_TYPE

Über OneWeb SL0241

Beschreibung wird geladen...

Live-Position

3D-Globus wird geladen...

Nächste Überflüge

Höhenverlauf

Altitude vs Time

uPlot chart will show altitude changes over time

Zweizeiliger Elementsatz

1 48773U 21045G 26036.75827696 .00000049 00000-0 95228-4 0 9991
2 48773 87.8984 285.4520 0001314 96.6615 263.4665 13.15548001227059
Epoch: 5. Feb. 2026 • Age: 13 hours

Aktueller Status

Höhe 1208.8 km
Geschwindigkeit 7.25 km/s
Subsatellitenpunkt 49.49°N, 148.13°W
Startdatum 28. Mai 2021
Alter 4.6 years
Typ internet

Technische Details

Klassifizierung Payload
Masse 148.00 kg
Trockenmasse 140.00 kg
Gesamtmasse 148.00 kg
Länge 1.30 m
Durchmesser 1.00 m
Spannweite 5.00 m
Form Trapezoid+2 pan
Hersteller ONEWUS
Bus-Typ ARROW
Phasenstatus In Orbit
Besitzer/Staat ONEWEBN/UK

Große Konstellationen

Loading constellations...